Tracking 34717 objects as of 15-Jul-2026
HD Live streaming from Space Station
objects crossing your sky now

SL-6 R/B(2)

Track SL-6 R/B(2) now!


NORAD ID: 19557
Int'l Code: 1988-092D
Perigee: 4,945.7 km
Apogee: 34,813.1 km
Inclination: 69.3 °
Period: 705.4 minutes
Semi major axis: 26250 km
RCS: 6.4601 m2 (large)
Launch date: October 3, 1988
Source: Commonwealth of Independent States (former USSR) (CIS)
Launch site: PLESETSK MISSILE AND SPACE COMPLEX (PKMTR)

Note: This is a ROCKET BODY
Your satellite tracking list
Your tracking list is empty




NASA's NSSDC Master Catalog

Two Line Element Set (TLE):
1 19557U 88092D   26195.26183104 -.00000428  00000-0  00000-0 0  9997
2 19557  69.3131  98.0508 5688944  38.0198 117.6779  2.04126144281592
Source of the keplerian elements: AFSPC